Location: Gleizolles
(44.4833°N, 6.7667°E)
Time: 02:17:52
(UTC+00:00)

Tiangong - Visible Passes

Search period start: 21 September 2021 00:00
Search period end: 01 October 2021 00:00
Orbit: 380 x 385 km, 41.5° (Epoch: 20 September)

Date Brightness Start Highest point End Pass type
(mag) Time Alt. Az. Time Alt. Az. Time Alt. Az.
26 Sep 3.8 03:59:26 10° S 04:00:38 12° SSE 04:01:52 10° SE visible
27 Sep 2.8 04:34:10 10° SW 04:36:51 25° SSE 04:39:32 10° ESE visible
28 Sep 3.2 03:36:49 18° SSE 03:36:52 18° SSE 03:39:06 10° ESE visible
29 Sep 2.2 04:11:49 23° SW 04:13:11 34° SSE 04:16:06 10° E visible
30 Sep 3.6 03:14:36 18° ESE 03:14:36 18° ESE 03:15:51 10° ESE visible
30 Sep 1.7 04:46:47 11° WSW 04:49:39 48° S 04:52:43 10° ESE visible
